This is the latest recevied weather packets stored in our database for station/object W4EDL-13. If no packets are shown the sender has not sent any weather packets the latest 10 day(s).
| Time | Temp. | Humidity | Pressure | Rain* | Wind** | Luminosity | Snow |
|---|---|---|---|---|---|---|---|
| 1777135830 | 30.56° C | 48% | 1002.5 hPa | - | - | - | - |
| 1777135808 | 31.11° C | 48% | 1002.5 hPa | - | - | - | - |
| 1777135230 | 29.44° C | 50% | 1002.9 hPa | - | - | - | - |
| 1777135207 | 30° C | 50% | 1002.9 hPa | - | - | - | - |
| 1777134629 | 29.44° C | 52% | 1002.5 hPa | - | - | - | - |
| 1777134606 | 29.44° C | 52% | 1002.5 hPa | - | - | - | - |
| 1777134028 | 29.44° C | 49% | 1002.5 hPa | - | - | - | - |
| 1777134006 | 29.44° C | 49% | 1002.5 hPa | - | - | - | - |
| 1777133428 | 31.11° C | 47% | 1002.9 hPa | - | - | - | - |
| 1777133405 | 31.11° C | 47% | 1002.9 hPa | - | - | - | - |
| 1777132828 | 30° C | 47% | 1002.9 hPa | - | - | - | - |
| 1777132805 | 29.44° C | 49% | 1002.9 hPa | - | - | - | - |
| 1777132227 | 29.44° C | 50% | 1002.9 hPa | - | - | - | - |
| 1777132204 | 29.44° C | 49% | 1002.9 hPa | - | - | - | - |
| 1777131627 | 30° C | 47% | 1002.9 hPa | - | - | - | - |
| 1777131604 | 30.56° C | 47% | 1002.9 hPa | - | - | - | - |
| 1777131026 | 30.56° C | 46% | 1002.9 hPa | - | - | - | - |
| 1777131003 | 30.56° C | 46% | 1002.9 hPa | - | - | - | - |
| 1777130425 | 30.56° C | 50% | 1002.9 hPa | - | - | - | - |
| 1777130402 | 30.56° C | 50% | 1002.9 hPa | - | - | - | - |
| 1777129825 | 30° C | 50% | 1002.9 hPa | - | - | - | - |
| 1777129802 | 30° C | 50% | 1002.9 hPa | - | - | - | - |
| 1777129224 | 30° C | 49% | 1002.9 hPa | - | - | - | - |
| 1777129201 | 30° C | 51% | 1002.9 hPa | - | - | - | - |
| 1777128623 | 30.56° C | 53% | 1002.9 hPa | - | - | - | - |
* Rain since midnight (hover to see other rain measurements)
** Current wind speed in m/s (hover to see current wind gust speed)